Strona główna
METAR-TAF:

METAR-TAF

Lotnisko :

Robinson Municipal Airport

Robinson, Illinois, Stany Zjednoczone

Szerokość geograficzna: 39-00-57N, Długość geograficzna: 087-38-59W, wysokość: 141 m

Aktualna obserwacja pogody

Raport powstał 29 minut temu, godzina 08:15 UTC
Cisza
Temperatura 19°C
Wilgotność 100%
Ciśnienie 1012 hPa
Widzialność: 16.1 km
Zachmurzenie całkowite na wysokości 600 ft

METAR: KRSV 280815Z AUTO 00000KT 10SM OVC006 19/19 A2989 RMK AO2 T01920192

czas: 03:44 (08:44 UTC)


TAF: brakujący

Obserwacja i prognoza pogody dla ponad 4000 lotnisk (raport METAR i TAF).

Dostępne stacje oznaczono żółtymi i czerwonymi punktami na mapie.

Najedź kursorem aby zobaczyć nazwę stacji.

Kliknij aby zobaczyć obserwacje i prognozy pogody.

Aby zmienić mapę: kliknij na zielony przycisk z czarnym krzyżykiem, aby powiększyć; na zielony przycisk z myślnikiem, aby pomniejszyć; na zielone strzałki, aby przejść do map sąsiednich.


METAR-TAF: